Location: Marsån
(66.4167°N, 22.2833°E)
Time: 08:46:05
(UTC+00:00)

Cosmos 2322 - Pass Details

Date: 24 February 2024
Orbit: 838 x 855 km, 71.0° (Epoch: 20 April)

Event Time Altitude Azimuth Distance (km) Brightness Sun altitude
Rises 16:18:07 0° 287° (WNW) 3,413 8.2 -6.1°
Reaches altitude 10° 16:20:37 10° 292° (WNW) 2,480 7.2 -6.3°
Maximum altitude 16:26:14 57° 11° (N) 998 4.0 -6.9°
Drops below altitude 10° 16:31:53 10° 90° (E) 2,489 5.5 -7.5°
Enters shadow 16:32:09 - 91° (E) 2,586 5.6 -7.5°
